Nashville, TN

7:15 AM CST on February 23, 2018 (GMT -0600)
Nashville International

Weather History for KBNA - September, 2011

Change the Weather History Date:

Thursday, September 22, 2011

  Actual Average Record
Temperature  
Mean Temperature 73 °F 69 °F  
Max Temperature 85 °F 80 °F 97 °F (1955)
Min Temperature 60 °F 58 °F 36 °F (1983)
Degree Days  
Heating Degree Days 0    
Month to date heating degree days 19  
Since 1 July heating degree days 19  
Cooling Degree Days 8    
Month to date cooling degree days 147  
Year to date cooling degree days 1879  
Growing Degree Days 21 (Base 50)    
Moisture  
Dew Point 60 °F    
Average Humidity 74    
Maximum Humidity 100    
Minimum Humidity 47    
Precipitation  
Precipitation 0.00 in 0.12 in 3.71 in (2003)
Month to date precipitation 5.49 2.45  
Year to date precipitation 40.10 34.70  
Snow  
Snow 0.00 in - 0.00 in (2002)
Month to date snowfall 0.0  
Since 1 July snowfall 0.0  
Since 1 September snowfall 0.0  
Snow Depth 0.00 in    
Sea Level Pressure  
Sea Level Pressure 30.07 in    
Wind  
Wind Speed 4 mph (NNW)    
Max Wind Speed 17 mph    
Max Gust Speed 23 mph    
Visibility 5 miles    
Events Fog    
T = Trace of Precipitation, MM = Missing Value Source: NWS Daily Summary

Daily Weather History Graph

Daily Weather History Graph

Search for Another Location

Airport or City:

Trip Planner

Search our weather history database for the weather conditions in past years. The results will help you decide how hot, cold, wet, or windy it might be!

Date:

Astronomy

Sep. 22, 2011 Rise Set
Actual Time 6:34 AM CDT 6:43 PM CDT
Civil Twilight 6:08 AM CDT 7:09 PM CDT
Nautical Twilight 5:38 AM CDT 7:39 PM CDT
Astronomical Twilight 5:08 AM CDT 8:09 PM CDT
Moon 1:04 AM CDT (9/22) 3:27 PM CDT (9/22)
Length of Visible Light 13h 00m
Length of Day
12h 09m
Waning Crescent, 28% of the Moon is Illuminated
Sep 22
Waning Crescent
Sep 27
New
Oct 3
First Quarter
Oct 11
Full
Oct 19
Last Quarter

Hourly Weather History & Observations

Time (CDT) Temp. Heat Index Dew Point Humidity Pressure Visibility Wind Dir Wind Speed Gust Speed Precip Events Conditions
12:53 AM 64.0 °F - 62.1 °F 93% 30.08 in 6.0 mi Calm Calm - N/A   Clear
1:53 AM 63.0 °F - 61.0 °F 93% 30.08 in 6.0 mi Calm Calm - N/A   Clear
2:53 AM 63.0 °F - 61.0 °F 93% 30.08 in 6.0 mi Calm Calm - N/A   Clear
3:53 AM 62.1 °F - 60.1 °F 93% 30.08 in 5.0 mi Calm Calm - N/A   Clear
4:53 AM 61.0 °F - 60.1 °F 97% 30.06 in 3.0 mi Calm Calm - N/A   Clear
4:55 AM 60.8 °F - 59.0 °F 94% 30.08 in 1.0 mi Calm Calm - N/A   Mist
4:57 AM 60.8 °F - 59.0 °F 94% 30.08 in 5.0 mi Calm Calm - N/A Fog Clear
5:26 AM 60.8 °F - 60.8 °F 100% 30.08 in 0.2 mi Calm Calm - N/A Fog Fog
5:51 AM 60.8 °F - 60.8 °F 100% 30.08 in 0.2 mi South 3.5 mph - N/A Fog Fog
5:53 AM 60.1 °F - 60.1 °F 100% 30.07 in 0.2 mi South 3.5 mph - N/A Fog Fog
6:00 AM 60.8 °F - 60.8 °F 100% 30.08 in 0.2 mi Calm Calm - N/A Fog Fog
6:13 AM 60.8 °F - 59.0 °F 94% 30.08 in 0.5 mi Calm Calm - N/A Fog Fog
6:18 AM 60.8 °F - 59.0 °F 94% 30.09 in 1.5 mi Calm Calm - N/A   Scattered Clouds
6:33 AM 60.8 °F - 60.8 °F 100% 30.09 in 0.5 mi Calm Calm - N/A Fog Fog
6:42 AM 62.6 °F - 60.8 °F 94% 30.09 in 0.2 mi North 3.5 mph - N/A Fog Fog
6:53 AM 62.1 °F - 61.0 °F 96% 30.08 in 0.2 mi NNW 4.6 mph - N/A Fog Fog
7:53 AM 63.0 °F - 62.1 °F 97% 30.10 in 0.2 mi Calm Calm - N/A Fog Fog
8:15 AM 64.4 °F - 62.6 °F 94% 30.12 in 0.2 mi Calm Calm - N/A Fog Fog
8:50 AM 64.4 °F - 64.4 °F 100% 30.12 in 0.5 mi Calm Calm - N/A Fog Fog
8:53 AM 64.9 °F - 64.0 °F 97% 30.11 in 0.5 mi Calm Calm - N/A Fog Fog
9:20 AM 66.2 °F - 64.4 °F 94% 30.13 in 2.0 mi Calm Calm - N/A Fog Patches of Fog
9:53 AM 68.0 °F - 64.9 °F 90% 30.12 in 4.0 mi Calm Calm - N/A Fog Patches of Fog
10:53 AM 75.0 °F - 63.0 °F 66% 30.13 in 10.0 mi Calm Calm - N/A   Scattered Clouds
11:53 AM 80.1 °F 81.2 °F 62.1 °F 54% 30.10 in 10.0 mi Calm Calm - N/A   Scattered Clouds
12:53 PM 82.0 °F 83.0 °F 62.1 °F 51% 30.09 in 10.0 mi Calm Calm - N/A   Scattered Clouds
1:53 PM 82.9 °F 83.7 °F 62.1 °F 49% 30.06 in 10.0 mi Variable 3.5 mph - N/A   Scattered Clouds
2:53 PM 82.0 °F 82.7 °F 61.0 °F 49% 30.02 in 10.0 mi NW 6.9 mph - N/A   Partly Cloudy
3:53 PM 81.0 °F 81.7 °F 61.0 °F 50% 30.00 in 10.0 mi NNW 6.9 mph - N/A   Scattered Clouds
4:53 PM 80.1 °F 81.2 °F 62.1 °F 54% 30.00 in 10.0 mi NNW 8.1 mph - N/A   Scattered Clouds
5:53 PM 79.0 °F - 61.0 °F 54% 29.99 in 10.0 mi NNW 5.8 mph - N/A   Scattered Clouds
6:53 PM 77.0 °F - 60.1 °F 56% 29.99 in 10.0 mi NNW 12.7 mph 18.4 mph N/A   Mostly Cloudy
7:53 PM 73.0 °F - 55.0 °F 53% 30.02 in 10.0 mi North 13.8 mph 23.0 mph N/A   Mostly Cloudy
8:53 PM 72.0 °F - 53.1 °F 51% 30.05 in 10.0 mi NNW 4.6 mph - N/A   Overcast
9:53 PM 69.1 °F - 53.1 °F 57% 30.05 in 10.0 mi North 9.2 mph - N/A   Mostly Cloudy
10:53 PM 66.0 °F - 52.0 °F 60% 30.06 in 10.0 mi NNW 8.1 mph - N/A   Overcast
11:53 PM 64.0 °F - 52.0 °F 65% 30.04 in 10.0 mi NNW 6.9 mph - N/A   Mostly Cloudy